User: anonymous   Login
Location: Unspecified
(41.1637°N, 24.2901°E)
Time: 20:25:02
(UTC+02:00)
Language:

ISS - Orbit

View from above orbital plane
View from above orbital plane
View from above satellite
View from above satellite

Ground track
Ground track

The orbit data is extracted from the following two-line orbital elements,

1 25544U 98067A   20228.55422589  .00016717  00000-0  10270-3 0  9034
2 25544  51.6405  54.6614 0001379  21.9435 338.1774 15.49147344  1212
Epoch (UTC): 15 August 2020 13:18:05
Eccentricity: 0.0001379
inclination: 51.6405°
perigee height: 418 km
apogee height: 420 km
right ascension of ascending node: 54.6614°
argument of perigee: 21.9435°
revolutions per day: 15.49147344
mean anomaly at epoch: 338.1774°
orbit number at epoch: 121

The dashed part of the orbit path shows where the satellite is in the earth's shadow,  

DLR